1491951601.03,7484,13.5,73296.5,-11.71,-12.57,-12.53,0,*5D
1491951602.3,7485,13.5,73302.0,-11.69,-12.57,-12.53,0,*55
1491951603.59,7486,13.5,73286.8,-11.71,-12.57,-12.57,0,*5B
1491951604.85,7487,13.5,73274.5,-11.69,-12.61,-12.57,0,*56
1491951606.11,7488,13.5,73286.3,-11.69,-12.71,-12.71,0,*5C
1491951607.38,7489,13.5,73284.0,-11.69,-12.61,-12.71,0,*5C
1491951608.66,7490,13.5,73266.3,-11.67,-12.57,-12.65,0,*5A
1491951609.92,7491,13.5,73262.0,-11.69,-12.61,-12.61,0,*54
1491951611.18,7492,13.5,73290.5,-11.69,-12.61,-12.61,0,*57
1491951612.43,7493,13.5,73286.8,-11.69,-12.61,-12.57,0,*53
1491951613.69,7494,13.5,73284.5,-11.69,-12.61,-12.57,0,*54
1491951614.95,7495,13.5,73292.5,-11.69,-12.57,-12.57,0,*50
1491951616.21,7496,13.5,73296.5,-11.69,-12.57,-12.57,0,*53
1491951617.48,7497,13.5,73292.8,-11.69,-12.53,-12.57,0,*56
1491951618.74,7498,13.5,73294.0,-11.67,-12.39,-12.35,0,*5F
1491951620.0,7499,13.5,73288.0,-11.67,-12.39,-12.35,0,*5E
1491951621.29,7500,13.5,73288.5,-11.67,-12.35,-12.35,0,*53
1491951622.56,7501,13.5,73292.3,-11.65,-12.35,-12.35,0,*50
1491951623.82,7502,13.5,73280.3,-11.67,-12.39,-12.35,0,*5D
1491951625.03,7503,13.5,73282.5,-11.65,-12.39,-12.39,0,*52
1491951626.27,7504,13.5,73278.3,-11.65,-12.39,-12.53,0,*59
1491951627.53,7505,13.5,73280.0,-11.67,-12.47,-12.53,0,*53
1491951628.82,7506,13.5,73286.8,-11.67,-12.53,-12.53,0,*55
1491951630.06,7507,13.5,73274.8,-11.65,-12.53,-12.47,0,*53
1491951631.27,7508,13.5,73268.8,-11.65,-12.47,-12.39,0,*50
1491951632.51,7509,13.5,73252.3,-11.65,-12.39,-12.35,0,*54
1491951633.75,7510,13.5,73254.5,-11.65,-12.35,-12.25,0,*51
1491951634.96,7511,13.5,73254.8,-11.65,-12.25,-12.25,0,*51
1491951636.2,7512,13.5,73256.0,-11.65,-12.35,-12.25,0,*53
1491951637.47,7513,13.5,73264.3,-11.65,-12.35,-12.35,0,*53
1491951638.73,7514,13.5,73266.5,-11.61,-12.35,-12.35,0,*50
1491951639.97,7515,13.5,73274.5,-11.61,-12.35,-12.29,0,*5C
1491951641.2,7516,13.5,73268.3,-11.61,-12.43,-12.35,0,*53
1491951642.47,7517,13.5,73264.8,-11.61,-12.35,-12.35,0,*53
1491951643.68,7518,13.5,73294.5,-11.61,-12.29,-12.29,0,*5C
1491951644.92,7519,13.5,73300.0,-11.61,-12.35,-12.29,0,*50
1491951646.18,7520,13.5,73284.8,-11.61,-12.35,-12.35,0,*57
1491951647.42,7521,13.5,73264.3,-11.61,-12.35,-12.29,0,*5B
1491951648.66,7522,13.5,73264.5,-11.59,-12.29,-12.25,0,*52
1491951649.89,7523,13.56,73336.5,-11.61,-12.47,-12.35,0,*51
1491951651.13,7524,13.5,73326.8,-11.59,-12.39,-12.43,0,*55
1491951652.36,7525,13.5,73304.0,-11.59,-12.43,-12.47,0,*5D
1491951653.61,7526,13.5,73290.5,-11.61,-12.61,-12.61,0,*51
1491951654.85,7527,13.56,73294.8,-11.59,-12.47,-12.47,0,*5B
1491951656.11,7528,13.5,73280.0,-11.61,-12.53,-12.53,0,*5F
1491951657.37,7529,13.5,73266.8,-11.61,-12.61,-12.61,0,*5E
1491951658.63,7530,13.5,73252.3,-11.61,-12.53,-12.53,0,*56
1491951659.87,7531,13.56,73256.8,-11.59,-12.47,-12.43,0,*58
1491951661.13,7532,13.5,73230.8,-11.61,-12.53,-12.53,0,*54
1491951662.39,7533,13.5,73286.5,-11.61,-12.61,-12.53,0,*54
1491951663.65,7534,13.5,73276.3,-11.61,-12.53,-12.53,0,*52
1491951664.92,7535,13.5,73264.8,-11.61,-12.53,-12.53,0,*53
1491951666.15,7536,13.5,73272.3,-11.59,-12.47,-12.43,0,*5F
1491951667.38,7537,13.5,73248.5,-11.59,-12.43,-12.47,0,*5E
1491951668.62,7538,13.5,73254.8,-11.61,-12.61,-12.47,0,*5A
1491951669.9,7539,13.5,73248.8,-11.59,-12.57,-12.57,0,*54
1491951671.18,7540,13.5,73248.5,-11.59,-12.57,-12.57,0,*5A
1491951672.39,7541,13.5,73266.3,-11.61,-12.47,-12.47,0,*50
1491951673.63,7542,13.5,73260.8,-11.59,-12.47,-12.43,0,*5C
1491951674.86,7543,13.5,73236.3,-11.61,-12.53,-12.47,0,*57
1491951676.1,7544,13.5,73244.3,-11.59,-12.47,-12.43,0,*5A
1491951677.34,7545,13.5,73248.3,-11.59,-12.47,-12.43,0,*5B
1491951678.57,7546,13.5,73254.5,-11.61,-12.61,-12.47,0,*53
1491951679.83,7547,13.5,73268.0,-11.59,-12.57,-12.47,0,*5C
1491951681.08,7548,13.5,73264.0,-11.61,-12.75,-12.65,0,*58
1491951682.37,7549,13.5,73256.5,-11.59,-12.83,-12.71,0,*5E
1491951683.66,7550,13.5,73264.3,-11.59,-12.75,-12.61,0,*5E
1491951684.95,7551,13.5,73274.8,-11.59,-12.75,-12.71,0,*5E
1491951686.24,7552,13.56,73272.5,-11.59,-12.71,-12.61,0,*58
1491951687.49,7553,13.56,73272.0,-11.61,-12.71,-12.65,0,*56
1491951688.75,7554,13.5,73274.5,-11.61,-12.75,-12.75,0,*54
1491951690.02,7555,13.5,73274.0,-11.61,-12.75,-12.75,0,*55
1491951691.3,7556,13.5,73270.5,-11.59,-12.61,-12.61,0,*5D
1491951692.56,7557,13.5,73274.3,-11.59,-12.61,-12.47,0,*58
1491951693.79,7558,13.5,73274.5,-11.59,-12.47,-12.47,0,*53
1491951695.03,7559,13.5,73280.0,-11.59,-12.47,-12.47,0,*52
1491951696.28,7560,13.56,73282.0,-11.61,-12.61,-12.53,0,*52
1491951697.52,7561,13.5,73282.8,-11.59,-12.47,-12.47,0,*59
1491951698.76,7562,13.5,73292.5,-11.59,-12.47,-12.47,0,*5A
1491951699.99,7563,13.5,73290.8,-11.57,-12.57,-12.43,0,*50
1491951701.22,7564,13.5,73284.5,-11.57,-12.57,-12.47,0,*53
1491951702.48,7565,13.5,73274.3,-11.57,-12.61,-12.57,0,*56
1491951703.71,7566,13.56,73274.3,-11.57,-12.61,-12.47,0,*54
1491951704.94,7567,13.5,73248.3,-11.57,-12.57,-12.47,0,*50
1491951706.17,7568,13.5,73244.0,-11.57,-12.57,-12.47,0,*5F
1491951707.4,7569,13.56,73228.3,-11.57,-12.57,-12.47,0,*5E
1491951708.66,7570,13.5,73250.5,-11.57,-12.71,-12.57,0,*53
1491951709.92,7571,13.5,73274.5,-11.57,-12.71,-12.57,0,*52
1491951711.17,7572,13.5,73272.8,-11.57,-12.61,-12.57,0,*50
1491951712.41,7573,13.5,73272.0,-11.57,-12.57,-12.47,0,*55
1491951713.67,7574,13.5,73268.0,-11.57,-12.71,-12.57,0,*57
1491951714.93,7575,13.5,73272.5,-11.57,-12.75,-12.75,0,*52
1491951716.16,7576,13.5,73276.3,-11.57,-13.01,-12.89,0,*50
1491951717.4,7577,13.5,73278.5,-11.57,-12.97,-12.83,0,*55
1491951718.64,7578,13.5,73280.0,-11.55,-12.97,-12.93,0,*59
1491951719.85,7579,13.5,73284.5,-11.57,-12.97,-12.89,0,*51
1491951721.08,7580,13.5,73290.0,-11.57,-13.01,-12.89,0,*59
1491951722.35,7581,13.5,73286.0,-11.59,-13.01,-12.89,0,*56
1491951723.61,7582,13.5,73282.0,-11.59,-13.01,-12.89,0,*55
1491951724.89,7583,13.5,73274.3,-11.59,-12.83,-12.75,0,*5C
1491951726.19,7584,13.5,73272.8,-11.59,-12.75,-12.71,0,*56
1491951727.45,7585,13.5,73276.8,-11.57,-12.71,-12.61,0,*5C
1491951728.71,7586,13.5,73282.8,-11.57,-12.75,-12.71,0,*5A
1491951729.97,7587,13.5,73284.3,-11.57,-12.61,-12.61,0,*5F
1491951731.2,7588,13.5,73288.3,-11.57,-12.71,-12.47,0,*55
1491951732.48,7589,13.5,73290.0,-11.59,-12.61,-12.57,0,*5A
1491951733.72,7590,13.5,73288.5,-11.59,-12.47,-12.47,0,*57
1491951734.95,7591,13.56,73290.0,-11.59,-12.47,-12.47,0,*56
1491951736.19,7592,13.5,73290.8,-11.59,-12.47,-12.43,0,*51
1491951737.42,7593,13.5,73294.3,-11.59,-12.47,-12.43,0,*50
1491951738.63,7594,13.5,73300.3,-11.57,-12.43,-12.43,0,*5D
1491951739.84,7595,13.5,73292.8,-11.57,-12.47,-12.43,0,*58
1491951741.1,7596,13.5,73296.8,-11.55,-12.53,-12.39,0,*51
1491951742.34,7597,13.5,73300.0,-11.57,-12.53,-12.39,0,*52
1491951743.57,7598,13.56,73304.3,-11.57,-12.57,-12.43,0,*54
1491951744.81,7599,13.5,73304.8,-11.59,-12.47,-12.43,0,*5A
1491951746.01,7600,13.5,73294.0,-11.57,-12.47,-12.47,0,*53
1491951747.25,7601,13.5,73272.3,-11.57,-12.57,-12.47,0,*53
1491951748.45,7602,13.5,73282.0,-11.57,-12.47,-12.47,0,*51
1491951749.66,7603,13.5,73282.5,-11.57,-12.47,-12.43,0,*54
1491951750.87,7604,13.5,73290.0,-11.57,-12.47,-12.43,0,*53
1491951752.13,7605,13.5,73288.8,-11.55,-12.43,-12.35,0,*55
1491951753.34,7606,13.5,73300.3,-11.57,-12.43,-12.43,0,*55
1491951754.55,7607,13.5,73292.3,-11.57,-12.39,-12.43,0,*59
1491951755.76,7608,13.5,73296.8,-11.57,-12.29,-12.39,0,*5A
1491951757.02,7609,13.5,73306.8,-11.55,-12.35,-12.25,0,*59
1491951758.23,7610,13.5,73302.3,-11.57,-12.43,-12.29,0,*5E
1491951759.49,7611,13.5,73292.5,-11.55,-12.39,-12.35,0,*5D
1491951760.69,7612,13.56,73282.0,-11.57,-12.43,-12.39,0,*5D
1491951761.93,7613,13.5,73270.3,-11.55,-12.43,-12.39,0,*5E
1491951763.16,7614,13.5,73256.5,-11.55,-12.43,-12.39,0,*59
1491951764.39,7615,13.5,73248.0,-11.55,-12.43,-12.39,0,*58
1491951765.65,7616,13.5,73248.3,-11.55,-12.43,-12.35,0,*57
1491951766.86,7617,13.5,73248.3,-11.57,-12.43,-12.39,0,*58
1491951768.12,7618,13.5,73228.8,-11.55,-12.35,-12.21,0,*5D
1491951769.39,7619,13.5,73218.8,-11.55,-12.35,-12.25,0,*58
1491951770.65,7620,13.5,73304.0,-11.55,-12.35,-12.25,0,*52
1491951771.88,7621,13.5,73296.3,-11.55,-12.25,-12.25,0,*52
1491951773.14,7622,13.5,73282.8,-11.51,-12.35,-12.25,0,*54
1491951774.4,7623,13.5,73276.0,-11.55,-12.35,-12.39,0,*5C
1491951775.64,7624,13.5,73262.3,-11.55,-12.39,-12.39,0,*57
1491951776.87,7625,13.5,73254.8,-11.55,-12.39,-12.39,0,*56
1491951778.1,7626,13.5,73276.0,-11.55,-12.43,-12.43,0,*55
1491951779.34,7627,13.56,73290.0,-11.55,-12.43,-12.43,0,*54
1491951780.57,7628,13.5,73268.3,-11.55,-12.43,-12.43,0,*5B
1491951781.83,7629,13.56,73288.0,-11.55,-12.53,-12.39,0,*56
1491951783.09,7630,13.5,73288.5,-11.51,-12.57,-12.43,0,*53
1491951784.35,7631,13.5,73288.0,-11.51,-12.53,-12.43,0,*56
1491951785.59,7632,13.5,73288.5,-11.49,-12.53,-12.47,0,*58
1491951786.85,7633,13.5,73292.8,-11.51,-12.53,-12.43,0,*54
1491951788.08,7634,13.5,73284.3,-11.51,-12.43,-12.43,0,*52
1491951789.33,7635,13.5,73288.8,-11.51,-12.57,-12.43,0,*56
1491951790.59,7636,13.5,73288.8,-11.51,-12.53,-12.43,0,*51
1491951791.88,7637,13.5,73284.8,-11.51,-12.53,-12.53,0,*51
1491951793.14,7638,13.5,73284.8,-11.51,-12.53,-12.43,0,*5F
1491951794.4,7639,13.5,73288.5,-11.51,-12.53,-12.43,0,*5E
1491951795.69,7640,13.5,73290.3,-11.51,-12.53,-12.57,0,*55
1491951796.97,7641,13.5,73278.5,-11.51,-12.65,-12.57,0,*51
1491951798.25,7642,13.5,73280.8,-11.55,-12.65,-12.57,0,*56
1491951799.51,7643,13.5,73282.0,-11.49,-12.75,-12.61,0,*5E
1491951800.79,7644,13.5,73282.8,-11.51,-12.79,-12.79,0,*55
1491951802.07,7645,13.5,73288.0,-11.51,-12.79,-12.65,0,*59
1491951803.35,7646,13.5,73290.0,-11.55,-12.65,-12.57,0,*52
1491951804.63,7647,13.5,73280.0,-11.51,-12.65,-12.57,0,*57
1491951805.91,7648,13.5,73290.8,-11.51,-12.65,-12.57,0,*58
1491951807.19,7649,13.5,73288.8,-11.51,-12.71,-12.65,0,*5D
1491951808.45,7650,13.5,73286.8,-11.51,-12.93,-12.79,0,*54
1491951809.69,7651,13.5,73286.5,-11.51,-13.19,-12.97,0,*56
1491951810.93,7652,13.5,73294.0,-11.55,-13.23,-13.19,0,*5F
1491951812.14,7653,13.5,73288.0,-11.57,-13.43,-13.23,0,*53
1491951813.4,7654,13.5,73294.3,-11.55,-13.37,-13.23,0,*55
1491951814.64,7655,13.5,73302.8,-11.55,-13.43,-13.23,0,*57
1491951815.87,7656,13.5,73292.8,-11.55,-13.19,-13.07,0,*5D
1491951817.16,7657,13.5,73296.8,-11.55,-12.83,-12.71,0,*5E
1491951818.42,7658,13.5,73296.3,-11.57,-12.71,-12.61,0,*5F
1491951819.7,7659,13.5,73294.0,-11.55,-12.65,-12.57,0,*5C
1491951820.96,7660,13.5,73300.3,-11.55,-12.53,-12.43,0,*56
1491951822.23,7661,13.5,73302.0,-11.55,-12.53,-12.43,0,*57
1491951823.51,7662,13.5,73292.5,-11.51,-12.57,-12.53,0,*55
1491951824.8,7663,13.5,73284.5,-11.55,-12.57,-12.53,0,*50
1491951826.06,7664,13.5,73276.5,-11.55,-12.53,-12.43,0,*52
1491951827.33,7665,13.5,73280.5,-11.55,-12.53,-12.43,0,*53
1491951828.56,7666,13.5,73276.5,-11.55,-12.43,-12.43,0,*51
1491951829.79,7667,13.5,73280.0,-11.55,-12.43,-12.39,0,*5D
1491951831.05,7668,13.5,73288.8,-11.55,-12.53,-12.39,0,*53
1491951832.32,7669,13.5,73302.0,-11.55,-12.53,-12.43,0,*5F
1491951833.6,7670,13.5,73298.3,-11.55,-12.65,-12.57,0,*57
1491951834.88,7671,13.5,73296.5,-11.55,-12.71,-12.65,0,*52
1491951836.17,7672,13.5,73296.8,-11.55,-12.71,-12.71,0,*54
1491951837.46,7673,13.5,73302.3,-11.55,-12.79,-12.79,0,*55
1491951838.75,7674,13.5,73300.5,-11.55,-12.83,-12.79,0,*57
1491951839.98,7675,13.5,73310.3,-11.51,-13.11,-12.93,0,*5C
1491951841.24,7676,13.5,73302.5,-11.55,-13.07,-12.83,0,*5D
1491951842.52,7677,13.5,73298.0,-11.55,-12.65,-12.53,0,*54
1491951843.76,7678,13.5,73300.8,-11.55,-12.43,-12.43,0,*5E
1491951845.02,7679,13.5,73300.3,-11.55,-12.39,-12.35,0,*53
1491951846.22,7680,13.5,73296.0,-11.57,-12.39,-12.39,0,*5B
1491951847.51,7681,13.5,73290.8,-11.51,-12.35,-12.35,0,*5C
1491951848.77,7682,13.5,73304.8,-11.51,-12.39,-12.35,0,*53
1491951850.0,7683,13.5,73300.5,-11.51,-12.43,-12.39,0,*53
1491951851.26,7684,13.5,73302.3,-11.51,-12.53,-12.43,0,*58
1491951852.49,7685,13.5,73308.0,-11.51,-12.43,-12.43,0,*58
1491951853.72,7686,13.5,73306.3,-11.51,-12.43,-12.43,0,*5B
1491951854.95,7687,13.5,73304.8,-11.51,-12.43,-12.43,0,*5A
1491951856.21,7688,13.5,73306.8,-11.51,-12.53,-12.43,0,*54
1491951857.47,7689,13.5,73304.5,-11.51,-12.53,-12.43,0,*55
1491951858.7,7690,13.5,73300.3,-11.51,-12.43,-12.43,0,*5C
1491951859.93,7691,13.5,73300.3,-11.51,-12.43,-12.43,0,*5D
1491951861.13,7692,13.5,73300.0,-11.49,-12.39,-12.39,0,*57
1491951862.34,7693,13.5,73304.5,-11.49,-12.39,-12.39,0,*56
1491951863.6,7694,13.5,73304.8,-11.51,-12.53,-12.43,0,*59
1491951864.81,7695,13.5,73302.0,-11.49,-12.43,-12.43,0,*50
1491951866.04,7696,13.5,73306.3,-11.51,-12.43,-12.39,0,*57
1491951867.32,7697,13.5,73306.5,-11.51,-12.35,-12.35,0,*5B
1491951868.55,7698,13.5,73298.5,-11.51,-12.39,-12.25,0,*59
1491951869.79,7699,13.5,73282.5,-11.49,-12.35,-12.29,0,*51
1491951871.03,7700,13.5,73280.5,-11.49,-12.21,-12.35,0,*58
1491951872.29,7701,13.5,73274.0,-11.51,-12.35,-12.25,0,*54
1491951873.5,7702,13.5,73302.0,-11.49,-12.29,-12.29,0,*5F
1491951874.76,7703,13.5,73296.8,-11.51,-12.35,-12.25,0,*56
1491951876.0,7704,13.5,73298.8,-11.49,-12.35,-12.29,0,*54
1491951877.23,7705,13.5,73304.8,-11.49,-12.35,-12.29,0,*55
1491951878.49,7706,13.5,73302.8,-11.51,-12.35,-12.39,0,*5E
1491951879.73,7707,13.5,73306.5,-11.49,-12.35,-12.29,0,*57
1491951880.94,7708,13.5,73304.8,-11.49,-12.29,-12.29,0,*55
1491951882.18,7709,13.5,73298.5,-11.49,-12.35,-12.29,0,*59
1491951883.42,7710,13.5,73292.8,-11.49,-12.35,-12.21,0,*59
1491951884.63,7711,13.5,73288.3,-11.49,-12.29,-12.21,0,*55
1491951885.86,7712,13.5,73294.5,-11.49,-12.29,-12.15,0,*51
1491951887.08,7713,13.5,73306.5,-11.49,-12.29,-12.21,0,*57
1491951888.31,7714,13.5,73300.0,-11.49,-12.35,-12.21,0,*5D
1491951889.58,7715,13.5,73296.8,-11.49,-12.35,-12.35,0,*59
1491951890.79,7716,13.5,73286.3,-11.49,-12.47,-12.39,0,*53
1491951891.99,7717,13.5,73288.0,-11.49,-12.39,-12.39,0,*5B
1491951893.23,7718,13.5,73296.5,-11.49,-12.39,-12.35,0,*58
1491951894.46,7719,13.5,73298.0,-11.49,-12.39,-12.35,0,*59
1491951895.69,7720,13.5,73282.5,-11.49,-12.39,-12.35,0,*53
1491951896.93,7721,13.5,73284.3,-11.47,-12.39,-12.29,0,*51
1491951898.19,7722,13.5,73272.5,-11.47,-12.35,-12.29,0,*5E
1491951899.46,7723,13.5,73268.8,-11.47,-12.21,-12.15,0,*55
1491951900.7,7724,13.5,73264.5,-11.47,-12.21,-12.21,0,*55
1491951901.92,7725,13.5,73300.3,-11.45,-12.21,-12.21,0,*56
1491951903.14,7726,13.5,73298.8,-11.45,-12.21,-12.21,0,*55
1491951904.4,7727,13.5,73268.0,-11.47,-12.35,-12.21,0,*53
1491951905.64,7728,13.5,73284.0,-11.47,-12.29,-12.21,0,*51
1491951906.9,7729,13.5,73310.0,-11.47,-12.35,-12.21,0,*5D
1491951908.16,7730,13.5,73256.5,-11.47,-12.39,-12.35,0,*5C
1491951909.43,7731,13.5,73252.8,-11.47,-12.39,-12.35,0,*5D
1491951910.69,7732,13.5,73268.0,-11.47,-12.39,-12.35,0,*5E
1491951911.95,7733,13.5,73266.0,-11.47,-12.39,-12.35,0,*5F
1491951913.18,7734,13.5,73294.8,-11.45,-12.39,-12.35,0,*5A
1491951914.44,7735,13.5,73280.5,-11.47,-12.39,-12.35,0,*59
1491951915.71,7736,13.5,73280.3,-11.45,-12.35,-12.35,0,*54
1491951916.94,7737,13.5,73282.3,-11.45,-12.35,-12.29,0,*58
1491951918.18,7738,13.5,73284.5,-11.45,-12.35,-12.29,0,*57
1491951919.39,7739,13.5,73280.3,-11.45,-12.43,-12.29,0,*57
1491951920.59,7740,13.5,73268.8,-11.45,-12.43,-12.29,0,*59
1491951921.85,7741,13.5,73270.0,-11.47,-12.39,-12.35,0,*5A
1491951923.09,7742,13.5,73278.3,-11.45,-12.35,-12.29,0,*5A
1491951924.3,7743,13.5,73292.5,-11.45,-12.29,-12.29,0,*56
1491951925.52,7744,13.5,73296.8,-11.45,-12.29,-12.29,0,*51
1491951926.75,7745,13.5,73292.8,-11.45,-12.35,-12.29,0,*5D
1491951927.99,7746,13.5,73294.3,-11.45,-12.35,-12.29,0,*5E
1491951929.2,7747,13.5,73286.3,-11.45,-12.43,-12.29,0,*5E
1491951930.43,7748,13.5,73288.3,-11.45,-12.43,-12.35,0,*5C
1491951931.69,7749,13.5,73296.8,-11.45,-12.57,-12.57,0,*5C
1491951932.92,7750,13.5,73290.3,-11.45,-12.61,-12.47,0,*50
1491951934.18,7751,13.5,73290.0,-11.45,-12.71,-12.57,0,*51
1491951935.46,7752,13.5,73296.0,-11.47,-12.79,-12.79,0,*54
1491951936.72,7753,13.5,73292.0,-11.45,-12.83,-12.71,0,*5A
1491951937.98,7754,13.5,73294.0,-11.45,-12.71,-12.57,0,*54
1491951939.24,7755,13.5,73290.5,-11.47,-12.61,-12.39,0,*5E
1491951940.5,7756,13.5,73290.0,-11.47,-12.61,-12.47,0,*54
1491951941.73,7757,13.5,73284.0,-11.47,-12.39,-12.47,0,*58
1491951942.99,7758,13.5,73286.5,-11.45,-12.35,-12.35,0,*5C
1491951944.23,7759,13.5,73288.0,-11.47,-12.39,-12.39,0,*5F
1491951945.46,7760,13.5,73288.0,-11.47,-12.39,-12.29,0,*54
1491951946.7,7761,13.5,73294.0,-11.45,-12.35,-12.29,0,*5B
1491951947.98,7762,13.5,73298.0,-11.47,-12.35,-12.15,0,*55
1491951949.2,7763,13.5,73298.3,-11.45,-12.21,-12.21,0,*54
1491951950.41,7764,13.5,73298.0,-11.45,-12.21,-12.21,0,*53
1491951951.67,7765,13.5,73298.0,-11.45,-12.15,-12.15,0,*52
1491951952.88,7766,13.5,73294.0,-11.45,-12.29,-12.25,0,*5D
1491951954.09,7767,13.5,73294.8,-11.45,-12.25,-12.25,0,*50
1491951955.33,7768,13.5,73290.8,-11.43,-12.29,-12.25,0,*55
1491951956.53,7769,13.5,73302.8,-11.45,-12.43,-12.29,0,*52
1491951957.74,7770,13.5,73300.0,-11.45,-12.43,-12.29,0,*5A
1491951958.98,7771,13.5,73302.5,-11.45,-12.47,-12.35,0,*52
1491951960.21,7772,13.5,73290.5,-11.45,-12.57,-12.43,0,*51
1491951961.47,7773,13.5,73280.3,-11.47,-12.53,-12.47,0,*52
1491951962.68,7774,13.5,73288.5,-11.45,-12.47,-12.43,0,*56
1491951963.92,7775,13.5,73284.8,-11.47,-12.39,-12.39,0,*51
1491951965.2,7776,13.5,73290.5,-11.43,-12.35,-12.35,0,*56
1491951966.46,7777,13.5,73300.0,-11.45,-12.71,-12.61,0,*50
1491951967.69,7778,13.5,73286.0,-11.45,-12.97,-12.83,0,*5B
1491951968.96,7779,13.5,73296.3,-11.47,-12.93,-12.79,0,*59
1491951970.19,7780,13.5,73294.8,-11.45,-12.61,-12.47,0,*5D
1491951971.47,7781,13.5,73286.5,-11.47,-12.65,-12.61,0,*5E
1491951972.7,7782,13.5,73284.0,-11.45,-12.57,-12.43,0,*5E
1491951973.97,7783,13.5,73284.3,-11.45,-12.35,-12.35,0,*5A
1491951975.22,7784,13.5,73294.0,-11.43,-12.35,-12.25,0,*5A
1491951976.5,7785,13.5,73298.3,-11.43,-12.15,-12.15,0,*5A
1491951977.74,7786,13.5,73290.0,-11.45,-12.25,-12.15,0,*5C
1491951978.99,7787,13.5,73282.0,-11.43,-12.35,-12.25,0,*59
1491951980.22,7788,13.5,73262.0,-11.43,-12.43,-12.43,0,*57
1491951981.48,7789,13.5,73262.5,-11.43,-12.35,-12.43,0,*57
1491951982.69,7790,13.5,73278.8,-11.45,-12.29,-12.29,0,*58
1491951983.91,7791,13.5,73294.0,-11.45,-12.29,-12.25,0,*55
1491951985.16,7792,13.5,73302.5,-11.43,-12.25,-12.15,0,*5F
1491951986.4,7793,13.5,73290.0,-11.45,-12.25,-12.11,0,*5C
1491951987.63,7794,13.5,73300.8,-11.45,-12.29,-12.15,0,*53
1491951988.85,7795,13.5,73288.3,-11.45,-12.29,-12.25,0,*51
1491951990.06,7796,13.5,73278.8,-11.45,-12.29,-12.29,0,*5E
1491951991.3,7797,13.5,73246.5,-11.43,-12.29,-12.29,0,*59
1491951992.53,7798,13.5,73224.3,-11.43,-12.29,-12.29,0,*56
1491951993.77,7799,13.5,73262.0,-11.43,-12.29,-12.29,0,*57
1491951995.01,7800,13.5,73268.0,-11.45,-12.29,-12.15,0,*51
1491951996.26,7801,13.5,73248.0,-11.45,-12.15,-12.15,0,*5F
1491951997.52,7802,13.5,73248.0,-11.45,-12.15,-12.11,0,*58
1491951998.78,7803,13.5,73246.3,-11.43,-11.97,-12.03,0,*55
1491952000.06,7804,13.5,73250.0,-11.43,-11.97,-11.97,0,*5C
1491952001.31,7805,13.5,73284.0,-11.43,-12.03,-11.97,0,*53
1491952002.57,7806,13.5,73306.5,-11.43,-12.03,-11.97,0,*50
1491952003.8,7807,13.5,73306.5,-11.43,-12.03,-12.03,0,*5F
1491952005.05,7808,13.5,73302.3,-11.43,-12.03,-11.97,0,*5E
1491952006.31,7809,13.5,73306.0,-11.41,-12.07,-12.07,0,*53
1491952007.54,7810,13.5,73296.0,-11.43,-12.25,-12.25,0,*59
1491952008.78,7811,13.5,73306.0,-11.43,-12.29,-12.29,0,*58
1491952010.04,7812,13.5,73308.0,-11.43,-12.35,-12.29,0,*56
1491952011.25,7813,13.5,73306.5,-11.41,-12.29,-12.29,0,*58
1491952012.46,7814,13.5,73296.8,-11.41,-12.25,-12.25,0,*5F
1491952013.66,7815,13.5,73290.5,-11.41,-12.25,-12.25,0,*5E
1491952014.87,7816,13.5,73278.5,-11.41,-12.29,-12.25,0,*51
1491952016.11,7817,13.56,73268.5,-11.43,-12.29,-12.29,0,*5E
1491952017.32,7818,13.5,73270.5,-11.41,-12.25,-12.25,0,*53
1491952018.52,7819,13.5,73254.0,-11.41,-12.25,-12.25,0,*52
1491952019.78,7820,13.5,73244.5,-11.43,-12.25,-12.15,0,*59
1491952021.02,7821,13.5,73262.0,-11.41,-12.21,-12.07,0,*5D
1491952022.3,7822,13.5,73280.3,-11.43,-12.15,-12.11,0,*5C
1491952023.54,7823,13.5,73260.3,-11.41,-12.21,-12.11,0,*58
1491952024.78,7824,13.5,73248.8,-11.43,-12.29,-12.29,0,*5E
1491952025.98,7825,13.5,73244.8,-11.41,-12.25,-12.25,0,*5D
1491952027.19,7826,13.5,73254.0,-11.41,-12.25,-12.25,0,*5E
1491952028.4,7827,13.5,73242.0,-11.41,-12.29,-12.25,0,*53
1491952029.63,7828,13.5,73246.5,-11.43,-12.25,-12.25,0,*52
1491952030.89,7829,13.5,73222.8,-11.41,-12.11,-12.07,0,*56
1491952032.15,7830,13.5,73238.3,-11.41,-12.07,-12.07,0,*59
1491952033.4,7831,13.5,73248.5,-11.41,-11.97,-11.85,0,*5B
1491952034.65,7832,13.5,73256.3,-11.43,-12.03,-11.97,0,*57
1491952035.92,7833,13.5,73264.8,-11.41,-11.93,-11.93,0,*5A
1491952037.18,7834,13.5,73250.3,-11.39,-11.97,-11.97,0,*52
1491952038.45,7835,13.56,73252.5,-11.39,-12.07,-11.93,0,*5D
1491952039.72,7836,13.5,73260.3,-11.39,-12.07,-11.97,0,*5A
1491952040.99,7837,13.56,73270.8,-11.39,-12.07,-12.07,0,*51
1491952042.28,7838,13.5,73272.5,-11.37,-12.07,-12.11,0,*57
1491952043.54,7839,13.5,73282.0,-11.39,-12.11,-12.07,0,*58
1491952044.79,7840,13.5,73294.5,-11.39,-12.21,-12.11,0,*52
1491952046.04,7841,13.5,73292.3,-11.39,-12.25,-12.07,0,*50
1491952047.25,7842,13.5,73290.5,-11.39,-12.25,-12.25,0,*53
1491952048.5,7843,13.56,73290.5,-11.37,-12.21,-12.21,0,*5C
1491952049.72,7844,13.56,73296.0,-11.39,-12.25,-12.25,0,*55
1491952050.94,7845,13.5,73292.0,-11.39,-12.25,-12.25,0,*54
1491952052.16,7846,13.5,73292.8,-11.39,-12.29,-12.25,0,*5B
1491952053.38,7847,13.5,73290.5,-11.39,-12.29,-12.25,0,*5A
1491952054.6,7848,13.56,73294.8,-11.39,-12.29,-12.29,0,*59
1491952055.84,7849,13.5,73294.5,-11.39,-12.53,-12.39,0,*54
1491952057.05,7850,13.56,73298.5,-11.39,-12.43,-12.39,0,*5D
1491952058.27,7851,13.56,73298.0,-11.39,-12.43,-12.43,0,*51
1491952059.53,7852,13.5,73296.5,-11.39,-12.65,-12.57,0,*53
1491952060.79,7853,13.5,73276.0,-11.39,-12.71,-12.65,0,*56
1491952062.06,7854,13.56,73286.5,-11.39,-12.83,-12.71,0,*59
1491952063.32,7855,13.56,73282.5,-11.39,-12.79,-12.65,0,*58
1491952064.58,7856,13.5,73280.8,-11.39,-12.65,-12.57,0,*57
1491952065.82,7857,13.5,73278.0,-11.41,-12.53,-12.43,0,*59
1491952067.02,7858,13.5,73268.0,-11.41,-12.43,-12.29,0,*5B
1491952068.23,7859,13.5,73260.5,-11.41,-12.39,-12.29,0,*57
1491952069.46,7860,13.56,73270.0,-11.41,-12.29,-12.35,0,*51
1491952070.75,7861,13.5,73276.8,-11.43,-12.35,-12.35,0,*5F
1491952071.96,7862,13.5,73260.3,-11.41,-12.29,-12.29,0,*5E
1491952073.17,7863,13.5,73250.0,-11.41,-12.29,-12.25,0,*53
1491952074.37,7864,13.5,73236.5,-11.41,-12.29,-12.25,0,*54
1491952075.59,7865,13.5,73222.3,-11.41,-12.29,-12.21,0,*51
1491952076.8,7866,13.5,73244.8,-11.41,-12.25,-12.21,0,*5E
1491952078.01,7867,13.5,73252.3,-11.41,-12.25,-12.21,0,*5F
1491952079.22,7868,13.5,73282.0,-11.39,-12.25,-12.25,0,*5B
1491952080.44,7869,13.5,73282.8,-11.39,-12.29,-12.25,0,*56
1491952081.66,7870,13.56,73284.0,-11.39,-12.39,-12.29,0,*53
1491952082.87,7871,13.5,73282.5,-11.39,-12.43,-12.39,0,*5E
1491952084.11,7872,13.5,73270.0,-11.39,-12.53,-12.43,0,*51
1491952085.33,7873,13.5,73302.8,-11.39,-12.43,-12.43,0,*51
1491952086.6,7874,13.56,73288.5,-11.39,-12.53,-12.53,0,*56
1491952087.83,7875,13.56,73286.3,-11.41,-12.53,-12.43,0,*59
1491952089.08,7876,13.5,73284.5,-11.39,-12.53,-12.43,0,*55
1491952090.33,7877,13.5,73280.5,-11.41,-12.57,-12.57,0,*5A
1491952091.58,7878,13.5,73284.5,-11.41,-12.71,-12.65,0,*50
1491952092.83,7879,13.5,73286.0,-11.41,-12.79,-12.65,0,*59
1491952094.08,7880,13.5,73284.5,-11.41,-12.79,-12.65,0,*5F
1491952095.33,7881,13.56,73280.8,-11.41,-12.79,-12.65,0,*5E
1491952096.59,7882,13.5,73280.5,-11.41,-12.83,-12.71,0,*5D
1491952097.85,7883,13.56,73278.5,-11.43,-13.01,-12.97,0,*5D
1491952099.05,7884,13.56,73274.5,-11.41,-13.11,-13.07,0,*51
1491952100.25,7885,13.5,73278.3,-11.41,-13.19,-13.07,0,*58
1491952101.48,7886,13.56,73272.0,-11.43,-13.15,-13.11,0,*52
1491952102.68,7887,13.5,73274.5,-11.41,-12.97,-12.93,0,*51
1491952103.92,7888,13.56,73274.3,-11.43,-12.97,-12.89,0,*57
1491952105.18,7889,13.5,73272.3,-11.43,-12.89,-12.75,0,*5A